Location: Austin
(30.3000°N, 97.7500°W)
Time: 05:13:13
(UTC-06:00)

YAOGAN 1 - Pass Details

Date: 03 March 2026
Orbit: 604 x 607 km, 97.8° (Epoch: 5 March)

Event Time Altitude Azimuth Distance (km) Brightness Sun altitude
Rises 18:54:44 0° 161° (SSE) 2,844 5.8 -5.8°
Reaches altitude 10° 18:56:54 10° 158° (SSE) 1,944 4.9 -6.3°
Maximum altitude 19:01:05 67° 77° (ENE) 659 2.5 -7.2°
Drops below altitude 10° 19:05:18 10° 355° (N) 1,954 5.2 -8.1°
Sets 19:07:30 0° 352° (N) 2,861 6.0 -8.6°
